Regional Weather Roundup
Issued by NWS State College, PA

Home | Current Version | Previous Version | Text Only | Print | Product List | Glossary On
Versions: 1 2 3 4 5 6 7 8 9 10 11 12 13 14 15 16 17 18 19 20 21 22 23 24 25 26 27 28 29 30 31 32 33 34 35 36 37 38 39 40 41 42 43 44 45 46 47 48 49 50
000
ASUS41 KCTP 212203
RWRCTP

REGIONAL WEATHER ROUNDUP
NATIONAL WEATHER SERVICE STATE COLLEGE PA
600 PM EDT SAT OCT 21 2017

Note: "fair" indicates few or no clouds below 12,000 feet with no
significant weather and/or obstructions to visibility.

* = STATION THAT DOES NOT REPORT PRECIPITATION /E.G. RAIN...SNOW...ETC/
    THUNDER OR FOG.

PAZ002>004-007>009-013>016-020>023-029>032-212300-
WESTERN PENNSYLVANIA

CITY           SKY/WX    TMP DP  RH WIND       PRES   REMARKS
ERIE           CLOUDY    71  50  47 S5        30.22S
MEADVILLE      CLOUDY    69  49  48 VRB3      30.26S
FRANKLIN*      CLOUDY    67  51  56 SE6       30.28S
NEW CASTLE     FAIR      69  54  58 CALM      30.26S
BEAVER COUNTY  NOT AVBL
BUTLER*        CLOUDY    69  53  56 CALM      30.27S
PITTSBURGH INT CLOUDY    71  54  54 SE5       30.25F
PITTSBURGH     PTCLDY    72  49  44 SE3       30.26S
INDIANA*       CLEAR     70  46  43 SE6       30.31S
LATROBE        CLEAR     72  54  53 CALM      30.28R
WASHINGTON CO* PTCLDY    69  55  60 CALM      30.28S
$$

PAZ004>006-010>012-017>019-024>028-033>037-041-042-045-046-049>053-212300-
CENTRAL PENNSYLVANIA

CITY           SKY/WX    TMP DP  RH WIND       PRES   REMARKS
BRADFORD       CLOUDY    67  40  37 SE3       30.31S
DUBOIS         CLOUDY    67  40  37 E7        30.29S
CLEARFIELD     CLOUDY    67  43  41 CALM      30.31S
JOHNSTOWN      CLOUDY    65  43  44 SE6       30.32S
ALTOONA        CLOUDY    67  42  40 SE8       30.33S
STATE COLLEGE  NOT AVBL
WILLIAMSPORT   CLOUDY    64  52  64 CALM      30.31R
SELINSGROVE    PTCLDY    64  55  72 CALM      30.33S
FT INDIANTOWN  CLOUDY    63  53  67 CALM      30.32F
CAPITAL CITY   CLOUDY    68  53  58 CALM      30.32S
HARRISBURG     CLOUDY    65  58  78 S3        30.31S
YORK           CLOUDY    65  49  56 CALM      30.33R
$$

PAZ038>040-043-044-047-048-054-055-060>062-067>071-212300-
EASTERN PENNSYLVANIA

CITY           SKY/WX    TMP DP  RH WIND       PRES   REMARKS
SCRANTON       CLOUDY    66  45  46 S3        30.33R
MOUNT POCONO   CLOUDY    64  40  41 SW5       30.36R
ALLENTOWN      PTCLDY    72  44  36 S5        30.33R
QUAKERTOWN*    CLOUDY    66  50  55 CALM      30.35R
READING        CLOUDY    71  42  35 W3        30.32R
LANCASTER      CLOUDY    71  43  36 S3        30.33R
COATESVILLE    PTCLDY    70  41  35 CALM      30.35S
POTTSTOWN      PTCLDY    66  48  52 CALM      30.35R
BLUE BELL      CLOUDY    61  50  67 CALM      30.35R
DOYLESTOWN     CLOUDY    67  44  43 CALM      30.33R
WILLOW GROVE   NOT AVBL
NORTH PHILA    CLOUDY    71  44  37 S3        30.34R
PHILADELPHIA   CLOUDY    72  47  40 SW7       30.33R
$$




USA.gov is the U.S. government's official web portal to all federal, state and local government web resources and services.